RH
95 96 98 97 96 89 94 86 69 69 76 99 97 98 46 19 21 19 30 18 24 22 24 28 26 25 29 37 38 39 38 37 34 28 23 23 26 31 35 38 45 58 57 68
96 95 96 96 90 98 90 67 61 50 48 97 68 42 26 38 28 25 29 26 19 27 23 26 27 25 25 30 39 39 32 20 16 17 18 20 24 28 33 39 45 47 53 67
97 96 97 87 96 84 73 77 70 52 48 50 26 23 22 24 20 22 26 25 25 26 24 23 24 18 16 17 16 15 15 15 16 17 18 21 24 27 33 40 44 46 50 65
89 90 89 86 66 63 62 54 50 40 26 22 21 24 24 23 19 22 24 22 23 21 15 15 14 13 12 13 14 14 15 16 17 19 21 24 27 28 35 45 43 51 56 86
57 68 71 61 49 48 43 40 34 26 23 19 17 21 17 17 19 20 19 19 19 18 13 12 12 13 14 14 15 16 16 15 18 22 25 28 31 33 42 48 48 60 67 96
21 18 16 18 17 27 35 33 28 22 19 15 13 13 10 13 14 14 15 13 12 11 13 14 13 14 15 13 10 11 11 14 20 25 29 32 34 42 50 54 60 60 83 100
75 65 50 34 30 31 26 21 21 16 12 11 12 13 13 12 12 12 12 13 14 15 14 13 12 10 9 8 9 10 12 17 25 30 33 35 43 58 60 63 67 75 99 91
41 34 33 37 30 35 36 33 30 25 20 17 18 20 18 17 16 16 17 17 17 15 13 10 8 9 9 10 10 11 13 25 33 36 38 44 56 71 74 74 83 95 98 68
72 57 45 35 32 33 30 29 26 25 24 22 19 19 19 19 18 16 14 14 13 10 8 9 9 9 10 12 13 14 20 31 38 44 52 61 73 86 79 85 92 100 86 44
66 58 46 39 34 34 30 26 25 25 25 22 19 18 18 16 14 13 11 10 9 9 9 10 12 14 15 15 15 17 27 36 45 57 67 67 79 89 91 93 93 95 85 38
55 46 38 33 32 28 26 24 22 20 20 19 18 16 15 14 12 11 10 10 11 12 13 14 16 17 16 16 18 31 35 50 58 60 71 85 92 98 94 100 100 96 87 39
57 49 49 63 59 56 52 44 35 24 17 14 12 11 11 11 11 11 11 12 14 16 18 19 18 18 17 19 32 53 77 88 79 71 76 100 100 97 93 100 100 100 66 46
67 70 74 69 65 61 50 42 34 25 17 14 13 11 11 11 12 12 13 17 20 21 21 21 21 21 32 23 43 79 82 81 80 81 97 100 100 100 100 100 100 96 42 54
60 85 73 73 69 62 51 40 30 21 14 13 13 13 13 14 16 19 22 22 22 21 19 21 36 23 48 50 60 87 99 100 100 100 100 100 100 100 100 100 100 65 51 62
67 54 59 66 68 51 26 19 16 15 15 16 16 17 20 22 23 23 23 18 16 13 13 15 31 42 41 41 85 100 100 100 100 100 100 100 100 100 100 100 95 48 58 65
78 54 36 31 24 19 18 18 18 18 20 22 22 21 19 14 10 9 9 10 12 12 10 10 11 36 76 85 98 100 100 100 100 94 100 100 100 100 100 94 49 58 58 50
44 36 29 22 19 20 21 22 23 25 26 21 13 8 6 6 6 5 5 5 4 4 4 4 6 21 46 65 76 74 86 100 99 100 100 100 100 100 75 43 55 54 55 46
27 25 23 23 24 25 26 28 30 24 15 11 10 8 7 5 6 5 5 4 3 3 3 4 11 37 54 62 68 83 99 100 100 100 100 100 100 58 47 52 56 54 49 58
30 30 34 34 32 34 34 26 18 14 11 8 5 8 7 6 6 6 6 5 4 4 17 36 41 53 70 77 84 98 100 100 100 100 100 98 46 50 53 59 54 53 64 80
41 41 42 42 30 20 14 11 8 7 7 8 9 8 7 6 7 6 7 7 10 36 50 81 88 84 99 100 99 100 100 100 100 100 70 39 48 55 61 58 58 70 84 87
44 35 16 9 8 10 12 12 12 12 12 11 10 8 8 7 7 9 8 14 66 95 90 100 100 100 100 100 98 100 100 100 95 40 45 51 59 64 64 61 72 86 90 99
12 12 13 14 15 16 16 16 14 13 12 10 9 9 8 8 10 11 23 64 78 94 100 100 100 100 100 100 100 99 98 84 46 54 60 63 64 67 62 75 89 92 100 98
16 17 18 18 19 20 18 14 12 10 10 9 9 10 13 11 32 64 87 91 98 100 100 100 100 100 96 65 65 80 50 52 57 57 60 64 64 61 77 89 96 100 97 83
22 22 22 22 22 20 14 11 10 11 11 13 13 20 22 67 100 100 99 96 99 100 100 100 99 87 70 62 47 44 54 55 56 61 68 67 68 79 90 100 100 97 83 56
28 25 25 25 22 15 10 10 10 12 16 30 28 32 95 100 99 100 100 100 100 100 100 88 63 54 50 46 52 59 53 54 61 68 71 72 79 92 100 100 99 88 56 37
36 31 26 17 10 10 10 11 12 27 40 28 40 99 100 100 100 100 100 99 100 100 88 74 69 60 56 60 61 53 52 61 67 70 65 77 97 100 100 100 90 59 37 32
21 14 13 12 10 12 14 24 29 25 21 68 89 100 100 100 100 100 98 100 99 83 76 78 74 68 60 51 56 56 57 65 70 72 92 100 100 100 100 88 52 35 31 31
Wind_Speed
30 25 21 24 26 23 27 32 30 26 27 21 15 19 36 27 27 24 26 28 22 25 23 22 25 27 30 30 31 33 35 39 41 42 43 44 46 47 50 52 53 53 54 54
29 29 18 25 23 28 26 27 26 25 25 22 29 36 31 27 29 29 28 29 26 25 26 26 27 30 32 33 35 36 39 42 44 46 47 48 49 50 51 53 54 55 56 55
27 26 29 32 28 32 32 29 28 28 27 33 33 30 28 26 27 28 27 27 28 27 28 29 30 32 34 35 37 39 41 43 45 47 49 50 50 52 53 54 55 56 57 56
24 27 29 21 23 26 28 28 27 26 30 28 27 27 28 26 28 29 29 28 28 31 33 33 33 34 36 37 39 41 43 46 49 50 52 52 52 53 55 55 56 58 57 55
25 26 25 22 19 24 28 26 24 24 26 25 25 26 28 27 28 29 30 32 33 35 36 36 36 36 39 39 41 43 46 49 51 53 54 53 53 54 56 56 58 59 56 52
18 20 21 22 18 20 24 26 24 24 25 25 26 26 29 28 30 32 34 35 36 38 36 37 37 37 38 40 43 46 49 51 53 54 54 56 55 54 56 57 59 58 55 49
24 25 26 23 15 19 24 26 25 28 28 29 29 29 31 34 35 36 37 37 37 38 38 39 38 39 39 42 45 49 50 53 54 56 57 58 56 55 56 59 58 56 52 50
22 23 18 20 21 23 27 29 29 29 31 32 32 33 35 36 37 37 38 38 39 39 40 40 39 41 43 46 49 52 52 53 56 57 58 57 56 57 57 59 58 53 51 52
27 26 26 24 26 24 26 27 30 31 31 34 35 36 36 36 39 41 41 40 40 40 40 41 43 45 49 51 53 54 54 55 57 58 57 55 56 56 57 59 53 51 54 53
29 28 30 29 29 26 28 29 31 31 31 33 36 36 37 38 39 40 41 42 42 43 45 46 48 51 54 55 56 55 56 58 57 55 55 56 57 58 57 58 52 52 57 54
29 29 31 29 28 30 31 31 33 35 35 36 37 38 38 39 40 40 42 44 47 49 51 53 53 55 57 57 58 58 59 58 57 56 55 55 56 59 58 56 52 52 58 53
29 33 33 33 33 34 38 39 39 38 38 40 41 41 42 43 44 46 48 49 52 55 57 59 59 60 59 58 60 60 57 54 57 58 54 53 56 58 58 55 51 56 57 52
35 34 36 38 38 38 41 39 41 43 44 47 46 45 47 49 50 52 53 54 56 59 60 60 63 62 60 59 60 59 59 59 58 57 53 54 58 57 57 50 51 56 54 50
40 38 40 35 36 39 40 40 43 44 46 48 49 49 50 51 53 55 59 62 63 63 63 62 61 63 60 61 60 60 60 59 59 55 55 57 56 56 52 45 53 54 49 48
41 43 44 45 46 46 43 43 43 46 48 49 51 52 55 57 59 60 61 58 59 58 58 58 62 64 64 64 62 60 58 59 59 58 58 57 56 48 48 50 51 49 46 46
42 39 39 43 46 43 42 44 46 48 50 51 52 50 49 49 49 48 52 58 62 62 61 62 63 65 66 67 65 65 63 63 61 58 56 55 51 50 50 46 47 45 45 47
42 43 44 44 42 44 46 47 48 48 47 44 39 39 44 45 47 50 57 61 64 64 63 63 67 68 67 62 56 54 54 55 54 56 52 49 46 44 42 43 42 43 44 47
42 42 42 44 46 47 48 49 46 40 39 42 45 47 45 49 56 57 54 56 56 60 63 67 64 55 53 51 52 54 52 50 49 45 45 43 39 40 40 39 40 42 45 47
42 43 46 48 47 46 42 39 37 39 43 40 41 45 52 58 59 54 51 51 55 58 52 49 46 48 49 49 47 47 43 41 40 40 38 35 38 38 37 37 39 42 45 45
44 45 46 44 37 33 34 36 37 41 43 48 50 55 60 64 61 58 60 55 52 46 43 42 40 37 40 42 41 39 34 33 36 32 33 36 35 35 35 36 40 42 43 46
39 35 28 26 28 32 34 40 43 46 48 54 56 59 62 66 67 66 60 46 41 42 40 40 39 40 41 37 35 32 33 31 29 33 33 32 32 33 35 38 40 41 44 46
25 26 29 32 35 38 42 46 48 51 55 58 61 64 67 68 70 57 45 41 38 38 38 37 36 35 31 32 29 26 26 28 31 29 28 30 32 33 35 38 39 41 43 44
31 34 35 39 41 44 46 49 52 56 60 65 68 70 71 63 45 39 38 36 34 33 28 27 27 26 24 24 24 27 28 28 26 26 28 30 31 33 36 37 39 41 43 47
39 42 44 44 46 47 50 56 58 62 66 69 71 70 48 36 36 36 35 32 32 31 31 29 24 24 24 26 27 26 26 25 26 27 29 30 32 34 35 37 38 41 45 49
44 45 47 48 50 55 58 62 66 68 69 69 68 38 33 35 34 32 31 31 30 28 24 24 24 24 24 24 25 25 25 25 26 28 29 30 32 33 34 37 40 43 48 51
44 45 48 51 57 61 63 68 69 68 64 49 30 29 30 32 32 32 31 31 29 24 25 25 25 25 24 24 24 24 25 26 27 28 30 30 30 32 35 39 42 46 50 53
45 48 55 59 62 64 67 68 63 54 40 31 27 28 29 33 34 32 31 27 23 23 25 26 25 25 25 25 24 25 26 26 27 28 28 29 31 34 37 40 45 49 53 54
Wind_Direction
228 223 217 234 239 237 233 240 245 242 248 252 254 258 276 288 292 291 292 289 292 294 296 296 301 303 303 304 304 306 309 309 311 312 312 311 311 311 312 313 315 316 317 319
223 228 220 241 230 237 232 253 256 255 257 247 254 259 277 283 284 286 288 290 293 290 293 295 296 298 299 301 304 306 308 309 310 310 309 310 310 311 311 313 314 316 318 320
224 240 241 236 232 251 253 255 259 261 267 266 271 277 284 281 277 283 283 285 289 292 295 293 294 297 298 302 304 306 307 307 306 306 308 308 309 310 311 312 315 317 319 318
232 246 250 254 246 249 254 257 264 268 269 273 278 281 279 278 281 283 284 287 289 292 295 294 298 300 303 304 306 306 307 307 307 308 306 307 308 309 310 313 316 317 318 317
236 242 252 252 251 255 257 261 264 268 271 274 276 275 275 282 282 284 286 287 287 290 295 297 301 303 304 305 306 308 308 308 308 306 305 306 307 308 310 314 317 318 317 315
239 250 260 260 267 262 266 262 269 266 270 274 277 281 281 284 282 284 285 287 289 291 294 296 299 301 302 304 307 308 307 306 305 305 304 305 307 308 311 316 318 317 316 311
244 254 254 264 262 274 270 271 271 275 279 281 284 286 286 287 285 284 285 287 289 290 292 295 299 301 303 306 306 306 304 303 304 303 303 304 307 309 313 317 318 316 314 313
256 261 271 261 266 257 263 269 272 275 278 279 281 283 282 282 284 285 285 286 287 288 291 295 299 301 303 303 304 304 301 301 301 300 301 303 306 309 313 317 318 316 314 315
248 259 264 263 267 264 267 271 273 275 277 280 280 281 283 284 286 286 286 286 286 289 292 296 298 300 302 301 302 299 298 297 297 298 301 303 305 307 312 317 314 316 317 315
252 261 262 263 267 267 270 273 276 277 274 277 280 283 285 285 285 285 286 288 290 293 296 300 300 301 301 299 295 295 293 292 294 297 301 304 305 308 313 316 312 312 317 315
260 264 264 264 267 273 278 278 279 283 285 285 285 285 286 287 287 288 289 292 295 297 299 300 298 300 297 294 292 290 289 291 294 297 300 302 305 309 311 312 307 311 315 314
263 259 263 269 272 279 284 284 284 285 286 286 287 288 287 287 289 291 293 295 297 298 297 298 296 294 296 292 290 289 290 290 293 296 300 302 304 307 309 308 309 309 311 311
266 258 266 273 280 283 282 284 286 289 292 291 290 289 289 289 291 291 292 292 291 292 293 293 292 291 290 289 287 288 289 291 292 294 300 301 302 304 306 304 306 307 308 310
268 262 266 275 280 282 284 288 291 290 288 286 287 288 289 289 288 287 289 291 293 292 293 290 286 287 284 286 285 286 288 289 293 298 300 301 302 302 301 296 303 305 307 309
261 266 271 273 278 287 290 290 286 284 283 284 285 287 285 286 286 287 288 289 290 290 289 288 285 285 284 283 284 285 289 293 296 297 298 298 299 297 292 294 300 303 306 308
264 272 279 280 283 284 283 281 279 279 282 283 283 284 284 287 287 293 297 294 293 293 292 291 287 283 281 282 283 285 289 294 295 297 295 293 292 285 288 295 300 304 305 309
280 284 285 286 284 281 281 282 283 285 285 280 278 288 298 293 301 293 295 294 294 295 293 289 281 280 281 282 288 289 289 290 290 290 289 289 289 288 295 298 301 303 307 310
278 279 281 279 278 279 279 280 281 277 274 275 283 293 299 311 307 304 303 301 298 293 283 278 279 282 283 284 282 287 287 285 286 284 284 287 290 295 296 300 301 306 308 310
274 274 276 274 274 274 276 277 275 275 286 290 305 307 314 311 315 303 302 300 293 288 289 285 281 276 278 284 287 287 283 281 281 286 287 290 293 294 297 299 304 308 309 312
267 268 267 268 269 273 278 284 293 294 297 302 309 309 317 315 311 307 305 298 294 292 285 282 284 287 288 289 284 279 282 284 286 289 294 291 293 294 297 303 306 309 310 313
260 258 259 268 277 285 291 292 293 296 302 303 306 309 316 315 308 303 302 293 289 291 290 288 288 288 286 282 283 290 287 286 294 290 287 291 293 297 302 305 308 309 311 313
253 264 271 276 281 286 286 291 296 299 303 306 306 304 307 304 302 299 292 289 290 295 296 293 292 289 284 285 289 287 290 292 287 287 292 295 298 301 304 305 307 310 311 314
267 271 277 281 281 283 288 292 299 301 301 304 303 300 300 302 296 288 289 292 295 291 291 291 293 294 295 297 294 291 288 285 290 295 297 299 302 303 305 307 310 311 314 316
273 273 275 275 279 283 287 295 299 299 299 297 295 299 297 288 292 291 290 293 296 296 297 293 298 300 296 293 290 285 286 291 294 295 297 300 302 304 306 308 311 313 315 316
271 274 275 278 282 290 292 294 298 296 295 294 300 290 280 291 293 289 286 290 293 296 299 303 301 297 295 291 287 289 292 292 292 294 299 301 303 304 307 310 312 314 316 318
275 276 280 285 288 290 292 293 291 290 294 299 280 277 287 289 285 284 287 289 292 297 300 296 295 295 294 294 294 293 290 291 295 300 301 301 303 306 309 311 313 315 317 318
275 280 287 291 289 287 287 287 290 290 287 277 273 276 286 281 280 285 290 292 295 296 294 295 296 296 295 294 293 294 295 295 299 301 301 303 306 308 310 313 315 316 318 320